Date_Time,Julian_Date,Latitude,Longitude,Instrument_Depth,U,V,Speed,Direction
(yyyy-mm-dd hh:mn:ss UTC),(JD),(+ deg. North),(+ deg. East),(m),(cm/s),(cm/s),(cm/s),(deg True)
1981-12-15 22:00:00 UTC,2444954.416667,29.4519,-93.4333,0107,2.85,6.39,7.0000,24.0000
1981-12-15 22:30:00 UTC,2444954.437500,29.4519,-93.4333,0107,4.64,7.71,9.0000,31.0000
1981-12-15 23:00:00 UTC,2444954.458333,29.4519,-93.4333,0107,5.90,6.79,9.0000,41.0000
1981-12-15 23:30:00 UTC,2444954.479167,29.4519,-93.4333,0107,7.66,6.43,10.0000,50.0000
1981-12-16 00:00:00 UTC,2444954.500000,29.4519,-93.4333,0107,8.66,5.00,10.0000,60.0000
1981-12-16 00:30:00 UTC,2444954.520833,29.4519,-93.4333,0107,9.40,3.42,10.0000,70.0000
1981-12-16 01:00:00 UTC,2444954.541667,29.4519,-93.4333,0107,10.72,2.47,11.0000,77.0000
1981-12-16 01:30:00 UTC,2444954.562500,29.4519,-93.4333,0107,10.94,1.15,11.0000,84.0000
1981-12-16 02:00:00 UTC,2444954.583333,29.4519,-93.4333,0107,10.99,-0.38,11.0000,92.0000
1981-12-16 02:30:00 UTC,2444954.604167,29.4519,-93.4333,0107,10.86,-1.72,11.0000,99.0000
1981-12-16 03:00:00 UTC,2444954.625000,29.4519,-93.4333,0107,9.78,-2.08,10.0000,102.0000
1981-12-16 03:30:00 UTC,2444954.645833,29.4519,-93.4333,0107,9.74,-2.25,10.0000,103.0000
1981-12-16 04:00:00 UTC,2444954.666667,29.4519,-93.4333,0107,10.76,-2.29,11.0000,102.0000
1981-12-16 04:30:00 UTC,2444954.687500,29.4519,-93.4333,0107,11.82,-2.08,12.0000,100.0000
1981-12-16 05:00:00 UTC,2444954.708333,29.4519,-93.4333,0107,11.82,-2.08,12.0000,100.0000
1981-12-16 05:30:00 UTC,2444954.729167,29.4519,-93.4333,0107,10.63,-2.85,11.0000,105.0000
1981-12-16 06:00:00 UTC,2444954.750000,29.4519,-93.4333,0107,9.56,-2.92,10.0000,107.0000
1981-12-16 06:30:00 UTC,2444954.770833,29.4519,-93.4333,0107,8.73,-2.18,9.0000,104.0000
1981-12-16 07:00:00 UTC,2444954.791667,29.4519,-93.4333,0107,7.96,-0.84,8.0000,96.0000
1981-12-16 07:30:00 UTC,2444954.812500,29.4519,-93.4333,0107,6.97,0.61,7.0000,85.0000
1981-12-16 08:00:00 UTC,2444954.833333,29.4519,-93.4333,0107,6.79,1.69,7.0000,76.0000
1981-12-16 08:30:00 UTC,2444954.854167,29.4519,-93.4333,0107,7.65,2.34,8.0000,73.0000
1981-12-16 09:00:00 UTC,2444954.875000,29.4519,-93.4333,0107,7.69,2.21,8.0000,74.0000
1981-12-16 09:30:00 UTC,2444954.895833,29.4519,-93.4333,0107,6.98,0.49,7.0000,86.0000
1981-12-16 10:00:00 UTC,2444954.916667,29.4519,-93.4333,0107,6.85,-1.46,7.0000,102.0000
1981-12-16 10:30:00 UTC,2444954.937500,29.4519,-93.4333,0107,5.64,-2.05,6.0000,110.0000
1981-12-16 11:00:00 UTC,2444954.958333,29.4519,-93.4333,0107,3.50,-1.94,4.0000,119.0000
1981-12-16 11:30:00 UTC,2444954.979167,29.4519,-93.4333,0107,1.26,-1.55,2.0000,141.0000
1981-12-16 12:00:00 UTC,2444955.000000,29.4519,-93.4333,0107,0.78,-1.84,2.0000,157.0000
1981-12-16 12:30:00 UTC,2444955.020833,29.4519,-93.4333,0107,0.24,-0.97,1.0000,166.0000
1981-12-16 13:00:00 UTC,2444955.041667,29.4519,-93.4333,0107,0.48,-0.87,1.0000,151.0000
1981-12-16 13:30:00 UTC,2444955.062500,29.4519,-93.4333,0107,1.20,-1.60,2.0000,143.0000
1981-12-16 14:00:00 UTC,2444955.083333,29.4519,-93.4333,0107,0.97,-1.75,2.0000,151.0000
1981-12-16 14:30:00 UTC,2444955.104167,29.4519,-93.4333,0107,0.78,-2.90,3.0000,165.0000
1981-12-16 15:00:00 UTC,2444955.125000,29.4519,-93.4333,0107,0.21,-2.99,3.0000,176.0000
1981-12-16 15:30:00 UTC,2444955.145833,29.4519,-93.4333,0107,-0.42,-3.98,4.0000,186.0000
1981-12-16 16:00:00 UTC,2444955.166667,29.4519,-93.4333,0107,-1.24,-3.80,4.0000,198.0000
1981-12-16 16:30:00 UTC,2444955.187500,29.4519,-93.4333,0107,-2.35,-4.41,5.0000,208.0000
1981-12-16 17:00:00 UTC,2444955.208333,29.4519,-93.4333,0107,-2.72,-4.19,5.0000,213.0000
1981-12-16 17:30:00 UTC,2444955.229167,29.4519,-93.4333,0107,-2.62,-3.02,4.0000,221.0000
1981-12-16 18:00:00 UTC,2444955.250000,29.4519,-93.4333,0107,-3.94,-3.08,5.0000,232.0000
1981-12-16 18:30:00 UTC,2444955.270833,29.4519,-93.4333,0107,-5.20,-3.00,6.0000,240.0000
1981-12-16 19:00:00 UTC,2444955.291667,29.4519,-93.4333,0107,-6.34,-2.96,7.0000,245.0000
1981-12-16 19:30:00 UTC,2444955.312500,29.4519,-93.4333,0107,-6.66,-2.16,7.0000,252.0000
1981-12-16 20:00:00 UTC,2444955.333333,29.4519,-93.4333,0107,-6.91,-1.10,7.0000,261.0000
1981-12-16 20:30:00 UTC,2444955.354167,29.4519,-93.4333,0107,-7.00,-0.12,7.0000,269.0000
1981-12-16 21:00:00 UTC,2444955.375000,29.4519,-93.4333,0107,-6.89,1.22,7.0000,280.0000
1981-12-16 21:30:00 UTC,2444955.395833,29.4519,-93.4333,0107,-6.24,3.18,7.0000,297.0000
1981-12-16 22:00:00 UTC,2444955.416667,29.4519,-93.4333,0107,-5.12,4.77,7.0000,313.0000
1981-12-16 22:30:00 UTC,2444955.437500,29.4519,-93.4333,0107,-4.36,6.71,8.0000,327.0000
1981-12-16 23:00:00 UTC,2444955.458333,29.4519,-93.4333,0107,-3.52,8.28,9.0000,337.0000
1981-12-16 23:30:00 UTC,2444955.479167,29.4519,-93.4333,0107,-2.60,7.56,8.0000,341.0000
1981-12-17 00:00:00 UTC,2444955.500000,29.4519,-93.4333,0107,-2.44,5.48,6.0000,336.0000
1981-12-17 00:30:00 UTC,2444955.520833,29.4519,-93.4333,0107,-2.27,4.46,5.0000,333.0000
1981-12-17 01:00:00 UTC,2444955.541667,29.4519,-93.4333,0107,-1.79,4.67,5.0000,339.0000
1981-12-17 01:30:00 UTC,2444955.562500,29.4519,-93.4333,0107,-1.37,3.76,4.0000,340.0000
1981-12-17 02:00:00 UTC,2444955.583333,29.4519,-93.4333,0107,-0.85,1.81,2.0000,335.0000
1981-12-17 02:30:00 UTC,2444955.604167,29.4519,-93.4333,0107,-0.57,0.82,1.0000,325.0000
1981-12-17 03:00:00 UTC,2444955.625000,29.4519,-93.4333,0107,-0.57,-0.82,1.0000,215.0000
1981-12-17 03:30:00 UTC,2444955.645833,29.4519,-93.4333,0107,-0.72,-1.87,2.0000,201.0000
1981-12-17 04:00:00 UTC,2444955.666667,29.4519,-93.4333,0107,-0.93,-2.85,3.0000,198.0000
1981-12-17 04:30:00 UTC,2444955.687500,29.4519,-93.4333,0107,-1.29,-4.83,5.0000,195.0000
1981-12-17 05:00:00 UTC,2444955.708333,29.4519,-93.4333,0107,-1.29,-4.83,5.0000,195.0000
1981-12-17 05:30:00 UTC,2444955.729167,29.4519,-93.4333,0107,-1.65,-5.77,6.0000,196.0000
1981-12-17 06:00:00 UTC,2444955.750000,29.4519,-93.4333,0107,-1.38,-4.81,5.0000,196.0000
1981-12-17 06:30:00 UTC,2444955.770833,29.4519,-93.4333,0107,-1.10,-3.85,4.0000,196.0000
1981-12-17 07:00:00 UTC,2444955.791667,29.4519,-93.4333,0107,-0.58,-1.91,2.0000,197.0000
1981-12-17 07:30:00 UTC,2444955.812500,29.4519,-93.4333,0107,-0.36,-0.93,1.0000,201.0000
1981-12-17 08:00:00 UTC,2444955.833333,29.4519,-93.4333,0107,-0.00,-0.00,0.0000,193.0000
1981-12-17 08:30:00 UTC,2444955.854167,29.4519,-93.4333,0107,0.00,-0.00,0.0000,174.0000
1981-12-17 09:00:00 UTC,2444955.875000,29.4519,-93.4333,0107,0.00,-0.00,0.0000,178.0000
1981-12-17 09:30:00 UTC,2444955.895833,29.4519,-93.4333,0107,-0.00,0.00,0.0000,276.0000
1981-12-17 10:00:00 UTC,2444955.916667,29.4519,-93.4333,0107,-1.00,0.07,1.0000,274.0000
1981-12-17 10:30:00 UTC,2444955.937500,29.4519,-93.4333,0107,-2.00,-0.10,2.0000,267.0000
1981-12-17 11:00:00 UTC,2444955.958333,29.4519,-93.4333,0107,-2.96,-0.47,3.0000,261.0000
1981-12-17 11:30:00 UTC,2444955.979167,29.4519,-93.4333,0107,-3.91,-0.83,4.0000,258.0000
1981-12-17 12:00:00 UTC,2444956.000000,29.4519,-93.4333,0107,-3.94,-0.69,4.0000,260.0000
1981-12-17 12:30:00 UTC,2444956.020833,29.4519,-93.4333,0107,-3.96,-0.56,4.0000,262.0000
1981-12-17 13:00:00 UTC,2444956.041667,29.4519,-93.4333,0107,-3.95,-0.63,4.0000,261.0000
1981-12-17 13:30:00 UTC,2444956.062500,29.4519,-93.4333,0107,-2.88,-0.83,3.0000,254.0000
1981-12-17 14:00:00 UTC,2444956.083333,29.4519,-93.4333,0107,-2.49,-1.68,3.0000,236.0000
1981-12-17 14:30:00 UTC,2444956.104167,29.4519,-93.4333,0107,-2.16,-2.08,3.0000,226.0000
1981-12-17 15:00:00 UTC,2444956.125000,29.4519,-93.4333,0107,-1.87,-0.72,2.0000,249.0000
1981-12-17 15:30:00 UTC,2444956.145833,29.4519,-93.4333,0107,-3.94,-0.69,4.0000,260.0000
1981-12-17 16:00:00 UTC,2444956.166667,29.4519,-93.4333,0107,-6.79,-1.69,7.0000,256.0000
1981-12-17 16:30:00 UTC,2444956.187500,29.4519,-93.4333,0107,-9.56,-2.92,10.0000,253.0000
1981-12-17 17:00:00 UTC,2444956.208333,29.4519,-93.4333,0107,-11.20,-4.30,12.0000,249.0000
1981-12-17 17:30:00 UTC,2444956.229167,29.4519,-93.4333,0107,-10.69,-5.45,12.0000,243.0000
1981-12-17 18:00:00 UTC,2444956.250000,29.4519,-93.4333,0107,-10.60,-5.63,12.0000,242.0000
1981-12-17 18:30:00 UTC,2444956.270833,29.4519,-93.4333,0107,-10.60,-5.63,12.0000,242.0000
1981-12-17 19:00:00 UTC,2444956.291667,29.4519,-93.4333,0107,-12.58,-6.14,14.0000,244.0000
1981-12-17 19:30:00 UTC,2444956.312500,29.4519,-93.4333,0107,-14.00,-5.38,15.0000,249.0000
1981-12-17 20:00:00 UTC,2444956.333333,29.4519,-93.4333,0107,-14.72,-2.86,15.0000,259.0000
1981-12-17 20:30:00 UTC,2444956.354167,29.4519,-93.4333,0107,-15.00,-0.26,15.0000,269.0000
1981-12-17 21:00:00 UTC,2444956.375000,29.4519,-93.4333,0107,-13.90,1.71,14.0000,277.0000
1981-12-17 21:30:00 UTC,2444956.395833,29.4519,-93.4333,0107,-12.29,4.23,13.0000,289.0000
1981-12-17 22:00:00 UTC,2444956.416667,29.4519,-93.4333,0107,-10.06,6.54,12.0000,303.0000
1981-12-17 22:30:00 UTC,2444956.437500,29.4519,-93.4333,0107,-8.78,8.18,12.0000,313.0000
1981-12-17 23:00:00 UTC,2444956.458333,29.4519,-93.4333,0107,-7.22,8.30,11.0000,319.0000
1981-12-17 23:30:00 UTC,2444956.479167,29.4519,-93.4333,0107,-6.62,8.78,11.0000,323.0000
1981-12-18 00:00:00 UTC,2444956.500000,29.4519,-93.4333,0107,-6.02,7.99,10.0000,323.0000
1981-12-18 00:30:00 UTC,2444956.520833,29.4519,-93.4333,0107,-5.14,6.13,8.0000,320.0000
1981-12-18 01:00:00 UTC,2444956.541667,29.4519,-93.4333,0107,-5.66,5.66,8.0000,315.0000
1981-12-18 01:30:00 UTC,2444956.562500,29.4519,-93.4333,0107,-5.28,4.59,7.0000,311.0000
1981-12-18 02:00:00 UTC,2444956.583333,29.4519,-93.4333,0107,-4.97,3.36,6.0000,304.0000
1981-12-18 02:30:00 UTC,2444956.604167,29.4519,-93.4333,0107,-5.25,2.91,6.0000,299.0000
1981-12-18 03:00:00 UTC,2444956.625000,29.4519,-93.4333,0107,-4.81,1.38,5.0000,286.0000
1981-12-18 03:30:00 UTC,2444956.645833,29.4519,-93.4333,0107,-5.00,-0.17,5.0000,268.0000
1981-12-18 04:00:00 UTC,2444956.666667,29.4519,-93.4333,0107,-4.96,-0.61,5.0000,263.0000
1981-12-18 04:30:00 UTC,2444956.687500,29.4519,-93.4333,0107,-3.93,-0.76,4.0000,259.0000
1981-12-18 05:00:00 UTC,2444956.708333,29.4519,-93.4333,0107,-2.67,-1.36,3.0000,243.0000
1981-12-18 05:30:00 UTC,2444956.729167,29.4519,-93.4333,0107,-2.23,-2.01,3.0000,228.0000
1981-12-18 06:00:00 UTC,2444956.750000,29.4519,-93.4333,0107,-2.52,-3.11,4.0000,219.0000
1981-12-18 06:30:00 UTC,2444956.770833,29.4519,-93.4333,0107,-1.94,-3.50,4.0000,209.0000
1981-12-18 07:00:00 UTC,2444956.791667,29.4519,-93.4333,0107,-1.32,-2.70,3.0000,206.0000
1981-12-18 07:30:00 UTC,2444956.812500,29.4519,-93.4333,0107,-1.76,-2.43,3.0000,216.0000
1981-12-18 08:00:00 UTC,2444956.833333,29.4519,-93.4333,0107,-2.12,-2.12,3.0000,225.0000
1981-12-18 08:30:00 UTC,2444956.854167,29.4519,-93.4333,0107,-2.84,-0.98,3.0000,251.0000
1981-12-18 09:00:00 UTC,2444956.875000,29.4519,-93.4333,0107,-3.99,0.21,4.0000,273.0000
1981-12-18 09:30:00 UTC,2444956.895833,29.4519,-93.4333,0107,-4.94,0.78,5.0000,279.0000
1981-12-18 10:00:00 UTC,2444956.916667,29.4519,-93.4333,0107,-4.91,0.95,5.0000,281.0000
1981-12-18 10:30:00 UTC,2444956.937500,29.4519,-93.4333,0107,-3.96,0.56,4.0000,278.0000
1981-12-18 11:00:00 UTC,2444956.958333,29.4519,-93.4333,0107,-2.99,0.26,3.0000,275.0000
1981-12-18 11:30:00 UTC,2444956.979167,29.4519,-93.4333,0107,-1.89,0.65,2.0000,289.0000
1981-12-18 12:00:00 UTC,2444957.000000,29.4519,-93.4333,0107,-1.62,1.18,2.0000,306.0000
1981-12-18 12:30:00 UTC,2444957.020833,29.4519,-93.4333,0107,-1.34,1.49,2.0000,318.0000
1981-12-18 13:00:00 UTC,2444957.041667,29.4519,-93.4333,0107,-1.29,1.53,2.0000,320.0000
1981-12-18 13:30:00 UTC,2444957.062500,29.4519,-93.4333,0107,-2.19,2.05,3.0000,313.0000
1981-12-18 14:00:00 UTC,2444957.083333,29.4519,-93.4333,0107,-2.26,1.97,3.0000,311.0000
1981-12-18 14:30:00 UTC,2444957.104167,29.4519,-93.4333,0107,-2.19,2.05,3.0000,313.0000
1981-12-18 15:00:00 UTC,2444957.125000,29.4519,-93.4333,0107,-1.89,2.33,3.0000,321.0000
1981-12-18 15:30:00 UTC,2444957.145833,29.4519,-93.4333,0107,-1.41,2.65,3.0000,332.0000
1981-12-18 16:00:00 UTC,2444957.166667,29.4519,-93.4333,0107,-1.43,3.73,4.0000,339.0000
1981-12-18 16:30:00 UTC,2444957.187500,29.4519,-93.4333,0107,-0.88,2.87,3.0000,343.0000
1981-12-18 17:00:00 UTC,2444957.208333,29.4519,-93.4333,0107,-0.35,1.97,2.0000,350.0000
1981-12-18 17:30:00 UTC,2444957.229167,29.4519,-93.4333,0107,0.19,0.98,1.0000,11.0000
1981-12-18 18:00:00 UTC,2444957.250000,29.4519,-93.4333,0107,0.47,0.88,1.0000,28.0000
1981-12-18 18:30:00 UTC,2444957.270833,29.4519,-93.4333,0107,0.00,0.00,0.0000,36.0000
1981-12-18 19:00:00 UTC,2444957.291667,29.4519,-93.4333,0107,0.00,0.00,0.0000,49.0000
1981-12-18 19:30:00 UTC,2444957.312500,29.4519,-93.4333,0107,0.00,0.00,0.0000,84.0000
1981-12-18 20:00:00 UTC,2444957.333333,29.4519,-93.4333,0107,0.00,-0.00,0.0000,155.0000
1981-12-18 20:30:00 UTC,2444957.354167,29.4519,-93.4333,0107,0.00,-0.00,0.0000,145.0000
1981-12-18 21:00:00 UTC,2444957.375000,29.4519,-93.4333,0107,0.00,-0.00,0.0000,142.0000
1981-12-18 21:30:00 UTC,2444957.395833,29.4519,-93.4333,0107,-0.00,0.00,0.0000,357.0000
1981-12-18 22:00:00 UTC,2444957.416667,29.4519,-93.4333,0107,-0.14,0.99,1.0000,352.0000
1981-12-18 22:30:00 UTC,2444957.437500,29.4519,-93.4333,0107,0.17,1.99,2.0000,5.0000
1981-12-18 23:00:00 UTC,2444957.458333,29.4519,-93.4333,0107,1.12,2.78,3.0000,22.0000
1981-12-18 23:30:00 UTC,2444957.479167,29.4519,-93.4333,0107,2.29,3.28,4.0000,35.0000
1981-12-19 00:00:00 UTC,2444957.500000,29.4519,-93.4333,0107,2.46,3.15,4.0000,38.0000
1981-12-19 00:30:00 UTC,2444957.520833,29.4519,-93.4333,0107,2.29,3.28,4.0000,35.0000
1981-12-19 01:00:00 UTC,2444957.541667,29.4519,-93.4333,0107,2.41,3.19,4.0000,37.0000
1981-12-19 01:30:00 UTC,2444957.562500,29.4519,-93.4333,0107,2.35,3.24,4.0000,36.0000
1981-12-19 02:00:00 UTC,2444957.583333,29.4519,-93.4333,0107,1.56,3.68,4.0000,23.0000
1981-12-19 02:30:00 UTC,2444957.604167,29.4519,-93.4333,0107,0.63,3.95,4.0000,9.0000
1981-12-19 03:00:00 UTC,2444957.625000,29.4519,-93.4333,0107,0.37,2.98,3.0000,7.0000
1981-12-19 03:30:00 UTC,2444957.645833,29.4519,-93.4333,0107,1.08,2.80,3.0000,21.0000
1981-12-19 04:00:00 UTC,2444957.666667,29.4519,-93.4333,0107,1.09,1.68,2.0000,33.0000
1981-12-19 04:30:00 UTC,2444957.687500,29.4519,-93.4333,0107,1.44,1.39,2.0000,46.0000
1981-12-19 05:00:00 UTC,2444957.708333,29.4519,-93.4333,0107,1.91,0.58,2.0000,73.0000
1981-12-19 05:30:00 UTC,2444957.729167,29.4519,-93.4333,0107,0.99,-0.12,1.0000,97.0000
1981-12-19 06:00:00 UTC,2444957.750000,29.4519,-93.4333,0107,0.94,-0.34,1.0000,110.0000
1981-12-19 06:30:00 UTC,2444957.770833,29.4519,-93.4333,0107,0.77,-0.64,1.0000,130.0000
1981-12-19 07:00:00 UTC,2444957.791667,29.4519,-93.4333,0107,0.17,-0.98,1.0000,170.0000
1981-12-19 07:30:00 UTC,2444957.812500,29.4519,-93.4333,0107,-0.47,-2.96,3.0000,189.0000
1981-12-19 08:00:00 UTC,2444957.833333,29.4519,-93.4333,0107,-1.30,-3.78,4.0000,199.0000
1981-12-19 08:30:00 UTC,2444957.854167,29.4519,-93.4333,0107,-1.88,-3.53,4.0000,208.0000
1981-12-19 09:00:00 UTC,2444957.875000,29.4519,-93.4333,0107,-1.72,-2.46,3.0000,215.0000
1981-12-19 09:30:00 UTC,2444957.895833,29.4519,-93.4333,0107,-1.85,-2.36,3.0000,218.0000
1981-12-19 10:00:00 UTC,2444957.916667,29.4519,-93.4333,0107,-1.49,-1.34,2.0000,228.0000
1981-12-19 10:30:00 UTC,2444957.937500,29.4519,-93.4333,0107,-1.90,-0.62,2.0000,252.0000
1981-12-19 11:00:00 UTC,2444957.958333,29.4519,-93.4333,0107,-3.00,-0.05,3.0000,269.0000
1981-12-19 11:30:00 UTC,2444957.979167,29.4519,-93.4333,0107,-3.88,0.97,4.0000,284.0000
1981-12-19 12:00:00 UTC,2444958.000000,29.4519,-93.4333,0107,-4.60,1.95,5.0000,293.0000
1981-12-19 12:30:00 UTC,2444958.020833,29.4519,-93.4333,0107,-5.52,2.34,6.0000,293.0000
1981-12-19 13:00:00 UTC,2444958.041667,29.4519,-93.4333,0107,-5.48,2.44,6.0000,294.0000
1981-12-19 13:30:00 UTC,2444958.062500,29.4519,-93.4333,0107,-5.35,2.72,6.0000,297.0000
1981-12-19 14:00:00 UTC,2444958.083333,29.4519,-93.4333,0107,-6.34,2.96,7.0000,295.0000
1981-12-19 14:30:00 UTC,2444958.104167,29.4519,-93.4333,0107,-9.56,2.92,10.0000,287.0000
1981-12-19 15:00:00 UTC,2444958.125000,29.4519,-93.4333,0107,-10.83,1.91,11.0000,280.0000
1981-12-19 15:30:00 UTC,2444958.145833,29.4519,-93.4333,0107,-11.93,1.25,12.0000,276.0000
1981-12-19 16:00:00 UTC,2444958.166667,29.4519,-93.4333,0107,-12.95,1.13,13.0000,275.0000
1981-12-19 16:30:00 UTC,2444958.187500,29.4519,-93.4333,0107,-11.95,1.05,12.0000,275.0000
1981-12-19 17:00:00 UTC,2444958.208333,29.4519,-93.4333,0107,-9.93,1.22,10.0000,277.0000
1981-12-19 17:30:00 UTC,2444958.229167,29.4519,-93.4333,0107,-6.99,0.37,7.0000,273.0000
1981-12-19 18:00:00 UTC,2444958.250000,29.4519,-93.4333,0107,-6.00,-0.21,6.0000,268.0000
1981-12-19 18:30:00 UTC,2444958.270833,29.4519,-93.4333,0107,-6.82,-1.57,7.0000,257.0000
1981-12-19 19:00:00 UTC,2444958.291667,29.4519,-93.4333,0107,-9.21,-3.91,10.0000,247.0000
1981-12-19 19:30:00 UTC,2444958.312500,29.4519,-93.4333,0107,-10.96,-4.88,12.0000,246.0000
1981-12-19 20:00:00 UTC,2444958.333333,29.4519,-93.4333,0107,-12.05,-4.87,13.0000,248.0000
1981-12-19 20:30:00 UTC,2444958.354167,29.4519,-93.4333,0107,-13.07,-5.02,14.0000,249.0000
1981-12-19 21:00:00 UTC,2444958.375000,29.4519,-93.4333,0107,-14.42,-4.13,15.0000,254.0000
1981-12-19 21:30:00 UTC,2444958.395833,29.4519,-93.4333,0107,-13.79,-2.43,14.0000,260.0000
1981-12-19 22:00:00 UTC,2444958.416667,29.4519,-93.4333,0107,-12.90,-1.58,13.0000,263.0000
1981-12-19 22:30:00 UTC,2444958.437500,29.4519,-93.4333,0107,-13.00,-0.23,13.0000,269.0000
1981-12-19 23:00:00 UTC,2444958.458333,29.4519,-93.4333,0107,-13.98,0.73,14.0000,273.0000
1981-12-19 23:30:00 UTC,2444958.479167,29.4519,-93.4333,0107,-13.92,1.46,14.0000,276.0000
1981-12-20 00:00:00 UTC,2444958.500000,29.4519,-93.4333,0107,-11.64,2.90,12.0000,284.0000
1981-12-20 00:30:00 UTC,2444958.520833,29.4519,-93.4333,0107,-9.27,3.75,10.0000,292.0000
1981-12-20 01:00:00 UTC,2444958.541667,29.4519,-93.4333,0107,-8.16,3.80,9.0000,295.0000
1981-12-20 01:30:00 UTC,2444958.562500,29.4519,-93.4333,0107,-7.42,3.00,8.0000,292.0000
1981-12-20 02:00:00 UTC,2444958.583333,29.4519,-93.4333,0107,-6.58,2.39,7.0000,290.0000
1981-12-20 02:30:00 UTC,2444958.604167,29.4519,-93.4333,0107,-6.79,1.69,7.0000,284.0000
1981-12-20 03:00:00 UTC,2444958.625000,29.4519,-93.4333,0107,-8.98,0.63,9.0000,274.0000
1981-12-20 03:30:00 UTC,2444958.645833,29.4519,-93.4333,0107,-12.00,-0.21,12.0000,269.0000
1981-12-20 04:00:00 UTC,2444958.666667,29.4519,-93.4333,0107,-13.95,-1.22,14.0000,265.0000
1981-12-20 04:30:00 UTC,2444958.687500,29.4519,-93.4333,0107,-13.74,-2.67,14.0000,259.0000
1981-12-20 05:00:00 UTC,2444958.708333,29.4519,-93.4333,0107,-12.43,-3.80,13.0000,253.0000
1981-12-20 05:30:00 UTC,2444958.729167,29.4519,-93.4333,0107,-11.41,-3.71,12.0000,252.0000
1981-12-20 06:00:00 UTC,2444958.750000,29.4519,-93.4333,0107,-8.51,-2.93,9.0000,251.0000
1981-12-20 06:30:00 UTC,2444958.770833,29.4519,-93.4333,0107,-8.16,-3.80,9.0000,245.0000
1981-12-20 07:00:00 UTC,2444958.791667,29.4519,-93.4333,0107,-9.62,-5.33,11.0000,241.0000
1981-12-20 07:30:00 UTC,2444958.812500,29.4519,-93.4333,0107,-11.37,-6.30,13.0000,241.0000
1981-12-20 08:00:00 UTC,2444958.833333,29.4519,-93.4333,0107,-12.47,-6.36,14.0000,243.0000
1981-12-20 08:30:00 UTC,2444958.854167,29.4519,-93.4333,0107,-13.91,-5.62,15.0000,248.0000
1981-12-20 09:00:00 UTC,2444958.875000,29.4519,-93.4333,0107,-15.13,-5.21,16.0000,251.0000
1981-12-20 09:30:00 UTC,2444958.895833,29.4519,-93.4333,0107,-16.42,-4.40,17.0000,255.0000
1981-12-20 10:00:00 UTC,2444958.916667,29.4519,-93.4333,0107,-14.72,-2.86,15.0000,259.0000
1981-12-20 10:30:00 UTC,2444958.937500,29.4519,-93.4333,0107,-14.72,-2.86,15.0000,259.0000
1981-12-20 11:00:00 UTC,2444958.958333,29.4519,-93.4333,0107,-16.69,-3.24,17.0000,259.0000
1981-12-20 11:30:00 UTC,2444958.979167,29.4519,-93.4333,0107,-16.94,-1.48,17.0000,265.0000
1981-12-20 12:00:00 UTC,2444959.000000,29.4519,-93.4333,0107,-16.99,0.59,17.0000,272.0000
1981-12-20 12:30:00 UTC,2444959.020833,29.4519,-93.4333,0107,-18.86,2.32,19.0000,277.0000
1981-12-20 13:00:00 UTC,2444959.041667,29.4519,-93.4333,0107,-19.75,3.13,20.0000,279.0000
1981-12-20 13:30:00 UTC,2444959.062500,29.4519,-93.4333,0107,-19.75,3.13,20.0000,279.0000
1981-12-20 14:00:00 UTC,2444959.083333,29.4519,-93.4333,0107,-21.60,4.20,22.0000,281.0000
1981-12-20 14:30:00 UTC,2444959.104167,29.4519,-93.4333,0107,-23.56,4.58,24.0000,281.0000
1981-12-20 15:00:00 UTC,2444959.125000,29.4519,-93.4333,0107,-23.64,4.17,24.0000,280.0000
1981-12-20 15:30:00 UTC,2444959.145833,29.4519,-93.4333,0107,-22.72,3.60,23.0000,279.0000
1981-12-20 16:00:00 UTC,2444959.166667,29.4519,-93.4333,0107,-21.79,3.06,22.0000,278.0000
1981-12-20 16:30:00 UTC,2444959.187500,29.4519,-93.4333,0107,-22.83,2.80,23.0000,277.0000
1981-12-20 17:00:00 UTC,2444959.208333,29.4519,-93.4333,0107,-23.87,2.51,24.0000,276.0000
1981-12-20 17:30:00 UTC,2444959.229167,29.4519,-93.4333,0107,-22.83,2.80,23.0000,277.0000
1981-12-20 18:00:00 UTC,2444959.250000,29.4519,-93.4333,0107,-22.87,2.40,23.0000,276.0000
1981-12-20 18:30:00 UTC,2444959.270833,29.4519,-93.4333,0107,-22.97,1.20,23.0000,273.0000
1981-12-20 19:00:00 UTC,2444959.291667,29.4519,-93.4333,0107,-23.00,-0.00,23.0000,270.0000
1981-12-20 19:30:00 UTC,2444959.312500,29.4519,-93.4333,0107,-22.00,-0.38,22.0000,269.0000
1981-12-20 20:00:00 UTC,2444959.333333,29.4519,-93.4333,0107,-22.97,-1.20,23.0000,267.0000
1981-12-20 20:30:00 UTC,2444959.354167,29.4519,-93.4333,0107,-22.87,-2.40,23.0000,264.0000
1981-12-20 21:00:00 UTC,2444959.375000,29.4519,-93.4333,0107,-24.69,-3.91,25.0000,261.0000
1981-12-20 21:30:00 UTC,2444959.395833,29.4519,-93.4333,0107,-25.75,-3.62,26.0000,262.0000
1981-12-20 22:00:00 UTC,2444959.416667,29.4519,-93.4333,0107,-24.94,-1.74,25.0000,266.0000
1981-12-20 22:30:00 UTC,2444959.437500,29.4519,-93.4333,0107,-24.97,-1.31,25.0000,267.0000
1981-12-20 23:00:00 UTC,2444959.458333,29.4519,-93.4333,0107,-24.94,-1.74,25.0000,266.0000
1981-12-20 23:30:00 UTC,2444959.479167,29.4519,-93.4333,0107,-23.94,-1.67,24.0000,266.0000
1981-12-21 00:00:00 UTC,2444959.500000,29.4519,-93.4333,0107,-23.87,-2.51,24.0000,264.0000
1981-12-21 00:30:00 UTC,2444959.520833,29.4519,-93.4333,0107,-23.77,-3.34,24.0000,262.0000
1981-12-21 01:00:00 UTC,2444959.541667,29.4519,-93.4333,0107,-22.78,-3.20,23.0000,262.0000
1981-12-21 01:30:00 UTC,2444959.562500,29.4519,-93.4333,0107,-22.87,-2.40,23.0000,264.0000
1981-12-21 02:00:00 UTC,2444959.583333,29.4519,-93.4333,0107,-22.97,-1.20,23.0000,267.0000
1981-12-21 02:30:00 UTC,2444959.604167,29.4519,-93.4333,0107,-22.00,-0.38,22.0000,269.0000
1981-12-21 03:00:00 UTC,2444959.625000,29.4519,-93.4333,0107,-22.97,-1.20,23.0000,267.0000
1981-12-21 03:30:00 UTC,2444959.645833,29.4519,-93.4333,0107,-24.90,-2.18,25.0000,265.0000
1981-12-21 04:00:00 UTC,2444959.666667,29.4519,-93.4333,0107,-26.85,-2.82,27.0000,264.0000
1981-12-21 04:30:00 UTC,2444959.687500,29.4519,-93.4333,0107,-27.85,-2.93,28.0000,264.0000
1981-12-21 05:00:00 UTC,2444959.708333,29.4519,-93.4333,0107,-26.90,-2.35,27.0000,265.0000
1981-12-21 05:30:00 UTC,2444959.729167,29.4519,-93.4333,0107,-24.98,-0.87,25.0000,268.0000
1981-12-21 06:00:00 UTC,2444959.750000,29.4519,-93.4333,0107,-24.98,-0.87,25.0000,268.0000
1981-12-21 06:30:00 UTC,2444959.770833,29.4519,-93.4333,0107,-24.94,-1.74,25.0000,266.0000
1981-12-21 07:00:00 UTC,2444959.791667,29.4519,-93.4333,0107,-24.86,-2.61,25.0000,264.0000
1981-12-21 07:30:00 UTC,2444959.812500,29.4519,-93.4333,0107,-24.54,-4.77,25.0000,259.0000
1981-12-21 08:00:00 UTC,2444959.833333,29.4519,-93.4333,0107,-25.11,-6.73,26.0000,255.0000
1981-12-21 08:30:00 UTC,2444959.854167,29.4519,-93.4333,0107,-25.53,-8.79,27.0000,251.0000
1981-12-21 09:00:00 UTC,2444959.875000,29.4519,-93.4333,0107,-26.89,-10.86,29.0000,248.0000
1981-12-21 09:30:00 UTC,2444959.895833,29.4519,-93.4333,0107,-27.41,-12.20,30.0000,246.0000
1981-12-21 10:00:00 UTC,2444959.916667,29.4519,-93.4333,0107,-27.62,-11.72,30.0000,247.0000
1981-12-21 10:30:00 UTC,2444959.937500,29.4519,-93.4333,0107,-27.07,-10.39,29.0000,249.0000
1981-12-21 11:00:00 UTC,2444959.958333,29.4519,-93.4333,0107,-27.42,-9.44,29.0000,251.0000